#timestamp,LO_Frequency,Hit,StdDev 
1624590015.7,286047000.0,N
1624590035.6,286047000.8,N
1624590055.4,286047000.3,N
1624590075.2,286047000.1,N
1624590095.1,286047000.9,N
1624590096.0,286047000.9,N
1624590115.8,286047000.9,N
1624590135.6,286047000.1,N
1624590155.5,286046999.8,N
1624590175.3,286047002.8,N
1624590195.2,286046999.8,N
1624590215.9,286047002.6,N
1624590235.7,286047000.5,N
1624590255.6,286047000.4,N
1624590275.4,286046998.8,N
1624590295.2,286046996.9,N
1624590315.1,286046997.2,N
1624590316.0,286046997.2,N
1624590335.8,286046996.6,N
1624590355.7,286046996.5,N
1624590375.5,286046996.8,N
1624590395.3,286046997.3,N
1624590415.2,286046999.5,N
1624590435.9,286046998.7,N
1624590455.7,286046999.6,N
1624590475.6,286046999.4,N
1624590495.4,286046999.4,N
1624590515.3,286046998.8,N
1624590535.1,286046999.5,N
1624590536.0,286046999.5,N
1624590555.8,286046999.6,N
1624590575.7,286046999.1,N
1624590595.5,286046999.3,N
1624590615.3,286046998.3,N
1624590635.2,286046999.4,N
1624590655.0,286046999.0,N
1624590655.9,286046999.0,N
1624590675.8,286046999.4,N
1624590695.6,286046999.4,N
1624590715.4,286046996.5,N
1624590735.3,286046999.5,N
1624590755.1,286046999.1,N
1624590775.8,286046999.5,N
1624590795.7,286046996.9,N
1624590815.5,286046997.3,N
1624590835.4,286046997.5,N
1624590855.2,286046997.2,N
1624590875.0,286046997.3,N
1624590875.9,286046997.3,N
1624590895.8,286046997.6,N
1624590915.6,286046997.1,N
1624590935.5,286046995.1,Y
1624590955.3,286046996.9,P
1624590975.1,286046997.5,P
1624590995.9,286046995.3,P
1624591015.7,286046995.3,Y
1624591035.5,286046998.9,P
1624591055.4,286046999.5,N
1624591075.2,286046998.7,N
1624591095.1,286046999.1,N
1624591096.0,286046999.1,N
1624591115.8,286046996.6,Y
1624591135.6,286046998.2,P
1624591155.5,286046998.3,P
1624591175.3,286047000.2,N
1624591195.1,286047001.0,N
1624591215.9,286046999.9,N
1624591235.7,286047000.2,N
1624591255.6,286047000.2,N
1624591275.4,286047000.8,N
1624591295.2,286047000.4,N
1624591315.1,286047000.4,N
1624591316.0,286047000.4,N
1624591338.5,286047002.6,N
1624591355.6,286046999.9,N
1624591375.5,286047002.6,N
1624591395.3,286047001.7,N
1624591415.1,286047004.4,Y
1624591435.9,286047001.4,P
1624591455.7,286047001.8,P
1624591475.6,286047000.0,N
1624591495.4,286047000.1,N
1624591515.2,286047000.1,N
1624591535.1,286047002.4,Y
1624591536.0,286047002.4,P
1624591555.8,286047000.9,N
1624591575.6,286047000.2,N
1624591595.5,286047002.2,N
1624591615.3,286047001.9,N
1624591635.2,286047001.3,N
1624591655.9,286047001.4,N
1624591675.7,286047001.3,N
1624591695.6,286047002.6,Y
1624591715.4,286047000.5,P
1624591735.2,286046997.0,P
1624591755.1,286046996.6,N
1624591756.0,286046996.6,N
1624591775.8,286046999.2,N
1624591795.7,286046998.9,N
1624591815.5,286046999.6,N
1624591835.3,286046996.6,N
1624591855.2,286046999.3,N
1624591875.0,286046999.2,N
1624591875.9,286046999.2,N
1624591895.8,286046999.6,N
1624591915.6,286046999.1,N
1624591935.4,286047000.5,N
1624591955.3,286046998.6,N
1624591975.1,286047001.2,N
1624591976.0,286047001.2,N
1624591995.8,286046998.7,N
1624592015.7,286046998.7,N
1624592035.5,286046998.5,N
1624592055.3,286046998.2,N
1624592075.2,286047002.7,N
1624592095.0,286047000.7,N
1624592095.9,286047000.7,N
1624592115.8,286047000.2,N
1624592135.6,286047000.4,N
1624592155.4,286047001.5,N
1624592175.3,286047001.6,N
1624592195.1,286047002.5,N
1624592215.9,286047002.1,N
1624592235.7,286047001.6,N
1624592255.5,286047000.0,N
1624592275.4,286047002.0,N
1624592295.2,286047002.0,N
1624592315.0,286047001.3,N
1624592315.9,286047001.3,N
1624592335.8,286047002.5,N
1624592355.6,286047001.9,N
1624592375.5,286047002.0,N
1624592395.3,286047002.1,N
1624592415.1,286047004.3,Y
1624592435.9,286047001.4,P
1624592455.7,286047003.4,P
1624592475.6,286047003.7,P
1624592495.4,286047003.6,N
1624592515.2,286047004.0,Y
1624592535.1,286047000.8,P
1624592536.0,286047000.8,N
1624592555.8,286047000.4,N
1624592575.6,286047001.1,N
1624592595.5,286047001.0,N
1624592615.3,286047000.6,N
1624592635.2,286047001.0,N
1624592655.9,286047000.7,N
1624592675.7,286047000.9,N
1624592695.6,286047000.1,N
1624592715.4,286047002.1,Y
1624592735.2,286046998.2,P
1624592755.1,286046998.6,N
1624592756.0,286046998.6,N
1624592775.8,286047001.2,N
1624592795.7,286046998.1,N
1624592815.5,286047000.8,N
1624592835.4,286047001.2,N
1624592855.2,286046998.2,N
1624592875.0,286046998.3,N
1624592875.9,286046998.3,N
1624592895.8,286046998.3,N
1624592915.6,286047001.0,N
1624592935.5,286047000.8,N
1624592955.3,286046998.5,N
1624592975.1,286046998.9,N
1624592995.9,286047001.1,N
1624593015.7,286047000.6,N
1624593035.5,286046999.3,N
1624593055.4,286046998.9,N
1624593075.2,286046998.9,N
1624593095.0,286046998.5,N
1624593096.0,286046998.5,N
1624593115.8,286047000.9,N
1624593135.6,286046998.8,N
1624593155.5,286046996.6,N
1624593175.3,286046998.7,N
1624593195.1,286046998.4,N
1624593215.9,286046999.0,N
1624593235.7,286046998.4,N
1624593255.5,286046998.3,N
1624593275.4,286047000.9,N
1624593295.2,286047000.2,N
1624593315.1,286047002.5,N
1624593316.0,286047002.5,N
1624593335.8,286047002.8,N
1624593355.6,286047000.9,N
1624593375.5,286046998.2,N
1624593395.3,286046998.9,N
1624593415.2,286046997.8,N
1624593435.9,286046997.3,N
1624593455.7,286046997.7,N
1624593475.6,286046995.5,N
1624593495.4,286046995.7,N
1624593515.2,286046995.8,N
1624593535.1,286046994.9,N
1624593536.0,286046994.9,N
1624593555.8,286046995.0,N
1624593575.7,286046997.5,N
1624593595.5,286046997.4,N
